星链-5594 (STARLINK-5594 )

导读

STARLINK-5594是美国SpaceX星链星座中的一颗卫星,于2023年3月3日发射入轨,星链项目旨在为全球提供高速卫星互联网接入服务,这颗卫星加入后进一步扩展了星链星座的网络覆盖能力与服务规模,支撑星链在通信、导航等多领域的应用部署。

Basic Information
目录编号:
55742
目录名称:
STARLINK-5594
国际标识:
2023-028B
轨道中心:
EARTH
卫星名称:
星链-5594
卫星全名:
星链-5594 (STARLINK-5594 )
卫星状态:
在轨 (已飞行1281 天)
发射日期:
2023-03-03 UTC
国别 :
美国 (US)
星等 :
--
Orbit Information
数据来源 国际轨道数据
星历时间: 2026-09-04T12:27:28+0800
19小时前
查看轨道信息
半长轴: 6950.188km
偏心率: 0.000264
轨道倾角: 70.000°
近地点辐角 273.456°
升交点赤经 154.547°
平近点角 86.630°
近地点: 570.216km
远地点: 573.886km
周期: 96.107分钟
每日圈数: 14.983316
Detailed Information
固有亮度:
5
最大亮度:
2.5
卫星平台:
Starlink v1.5
覆盖范围:
全球
运营商:
太空探索技术公司
运营商所在国:
美国
制造商(研发单位):
太空探索技术公司
制造商所在国:
美国
使用方式:
暂无
Satellite Introduction
星链(Starlink)计划是由太空探索技术公司(SpaceX)提出的一个巨型低轨卫星互联网星座项目,计划在2019年至2024年间在太空搭建由约1.2万颗卫星组成的“星链”网络,其中1584颗将部署在地球上空550千米处的近地轨道,并从2020年开始工作。该卫星仍在工作。
2D Orbit Map
3D Orbit Map
Orbit Altitude Analysis Chart
Orbit Inclination Analysis Chart
Orbit Comprehensive Analysis Chart
View Comprehensive Chart
Conjunction Data List
Event ID Objects TCA Miss Dist (km) Collision Risk Probability Collision Risk Index (CRI) Action
CDM_260903-040804-114005-574223
2026-09-03T
04:08:19+0000
0.540 km
远距离
1.097454E-4 高风险 0.76
CDM_260905-223002-544905-574221
2026-09-05T
22:30:16+0000
1.239 km
极远距离
8.123473E-6 低风险 0.53
CDM_260907-002704-435005-574222
2026-09-07T
00:27:18+0000
1.438 km
极远距离
5.858263E-6 低风险 0.5
CDM_260905-172004-488005-574222
OBJECT B (44880)
2026-09-05T
17:20:51+0000
2.328 km
极远距离
2.035082E-6 低风险 0.41